,,PA_Meas_PMT16A,,PR_Meas_QMR101_102,,RH_Meas_QMH101,,SR_Meas_QMS101,,TA_Meas_QMH101,,GenWind,,GenWind,
time,status,PA,status,PR,status,RH,status,SR,status,TA,status,DirAvg,status,SpdAvg,
2012-09-24, 00:00:04,VALID,918.076,VALID,0,VALID,94.6981,VALID,0,VALID,20.6015,VALID,328,VALID,0.0652344,
2012-09-24, 00:01:04,VALID,918.066,VALID,0,VALID,94.6905,VALID,0,VALID,20.582,VALID,336,VALID,0,
2012-09-24, 00:02:04,VALID,918.063,VALID,0,VALID,94.7133,VALID,0,VALID,20.6031,VALID,348,VALID,0,
2012-09-24, 00:03:04,VALID,918.045,VALID,0,VALID,94.7667,VALID,0,VALID,20.5851,VALID,351,VALID,0,
2012-09-24, 00:04:04,VALID,917.98,VALID,0,VALID,94.8429,VALID,0,VALID,20.5445,VALID,354,VALID,0,
2012-09-24, 00:05:04,VALID,917.942,VALID,0,VALID,94.8963,VALID,0,VALID,20.5235,VALID,340,VALID,0,
2012-09-24, 00:06:04,VALID,917.887,VALID,0,VALID,94.9878,VALID,0,VALID,20.5445,VALID,21,VALID,0,
2012-09-24, 00:07:04,VALID,917.826,VALID,0,VALID,95.0183,VALID,0,VALID,20.5235,VALID,358,VALID,0,
2012-09-24, 00:08:04,VALID,917.786,VALID,0,VALID,94.9954,VALID,0,VALID,20.504,VALID,351,VALID,0,
2012-09-24, 00:09:04,VALID,917.76,VALID,0,VALID,94.9954,VALID,0,VALID,20.4845,VALID,25,VALID,0,
2012-09-24, 00:10:04,VALID,917.765,VALID,0,VALID,95.0106,VALID,0,VALID,20.5055,VALID,335,VALID,0,
2012-09-24, 00:11:04,VALID,917.734,VALID,0,VALID,95.003,VALID,0,VALID,20.4618,VALID,347,VALID,0,
2012-09-24, 00:12:04,VALID,917.812,VALID,0,VALID,94.9878,VALID,0,VALID,20.504,VALID,353,VALID,0,
2012-09-24, 00:13:04,VALID,917.796,VALID,0,VALID,95.0869,VALID,0,VALID,20.4845,VALID,353,VALID,0,
2012-09-24, 00:14:04,VALID,917.8,VALID,0,VALID,95.1707,VALID,0,VALID,20.525,VALID,353,VALID,0,
2012-09-24, 00:15:04,VALID,917.825,VALID,0,VALID,95.1783,VALID,0,VALID,20.5235,VALID,353,VALID,0,
2012-09-24, 00:16:04,VALID,917.798,VALID,0,VALID,95.2012,VALID,0,VALID,20.5641,VALID,19,VALID,0,
2012-09-24, 00:17:04,VALID,917.792,VALID,0,VALID,95.1631,VALID,0,VALID,20.5445,VALID,19,VALID,0,
2012-09-24, 00:18:04,VALID,917.75,VALID,0,VALID,95.1555,VALID,0,VALID,20.5641,VALID,19,VALID,0,
2012-09-24, 00:19:04,VALID,917.697,VALID,0,VALID,94.9192,VALID,0,VALID,20.4845,VALID,356,VALID,0,
2012-09-24, 00:20:04,VALID,917.723,VALID,0,VALID,94.8505,VALID,0,VALID,20.486,VALID,353,VALID,0,
2012-09-24, 00:21:04,VALID,917.711,VALID,0,VALID,94.82,VALID,0,VALID,20.4454,VALID,350,VALID,0,
2012-09-24, 00:22:05,VALID,917.754,VALID,0,VALID,94.7438,VALID,0,VALID,20.4665,VALID,335,VALID,0,
2012-09-24, 00:23:05,VALID,917.767,VALID,0,VALID,94.7438,VALID,0,VALID,20.4665,VALID,335,VALID,0,
2012-09-24, 00:24:05,VALID,917.761,VALID,0,VALID,94.7362,VALID,0,VALID,20.4665,VALID,335,VALID,0,
2012-09-24, 00:25:05,VALID,917.796,VALID,0,VALID,94.7667,VALID,0,VALID,20.4454,VALID,335,VALID,0,
2012-09-24, 00:26:05,VALID,917.758,VALID,0,VALID,94.7972,VALID,0,VALID,20.4665,VALID,335,VALID,0,
2012-09-24, 00:27:05,VALID,917.756,VALID,0,VALID,94.82,VALID,0,VALID,20.4665,VALID,335,VALID,0,
2012-09-24, 00:28:05,VALID,917.719,VALID,0,VALID,94.8048,VALID,0,VALID,20.4665,VALID,335,VALID,0,
2012-09-24, 00:29:05,VALID,917.724,VALID,0,VALID,94.7972,VALID,0,VALID,20.4454,VALID,335,VALID,0,
2012-09-24, 00:30:05,VALID,917.724,VALID,0,VALID,94.8505,VALID,0,VALID,20.4665,VALID,335,VALID,0,
2012-09-24, 00:31:05,VALID,917.713,VALID,0,VALID,94.8582,VALID,0,VALID,20.4665,VALID,335,VALID,0,
2012-09-24, 00:32:05,VALID,917.698,VALID,0,VALID,94.82,VALID,0,VALID,20.447,VALID,335,VALID,0,
2012-09-24, 00:33:05,VALID,917.652,VALID,0,VALID,94.8887,VALID,0,VALID,20.4259,VALID,335,VALID,0,
2012-09-24, 00:34:05,VALID,917.633,VALID,0,VALID,94.8582,VALID,0,VALID,20.3854,VALID,15,VALID,0,
2012-09-24, 00:35:05,VALID,917.606,VALID,0,VALID,94.8505,VALID,0,VALID,20.3659,VALID,15,VALID,0,
2012-09-24, 00:36:05,VALID,917.579,VALID,0,VALID,94.8658,VALID,0,VALID,20.3479,VALID,15,VALID,0,
2012-09-24, 00:37:05,VALID,917.578,VALID,0,VALID,94.9496,VALID,0,VALID,20.3089,VALID,15,VALID,0,
2012-09-24, 00:38:05,VALID,917.574,VALID,0,VALID,95.0106,VALID,0,VALID,20.3089,VALID,15,VALID,0,
2012-09-24, 00:39:05,VALID,917.589,VALID,0,VALID,95.0869,VALID,0.107441,VALID,20.2879,VALID,15,VALID,0,
2012-09-24, 00:40:05,VALID,917.599,VALID,0,VALID,95.186,VALID,0,VALID,20.3089,VALID,15,VALID,0,
2012-09-24, 00:41:05,VALID,917.577,VALID,0,VALID,95.1783,VALID,0.107441,VALID,20.3284,VALID,15,VALID,0,
2012-09-24, 00:42:05,VALID,917.538,VALID,0,VALID,95.125,VALID,0,VALID,20.3479,VALID,10,VALID,0,
2012-09-24, 00:43:05,VALID,917.494,VALID,0,VALID,95.0869,VALID,0,VALID,20.3074,VALID,311,VALID,0,
2012-09-24, 00:44:05,VALID,917.451,VALID,0,VALID,95.1021,VALID,0,VALID,20.3479,VALID,311,VALID,0,
2012-09-24, 00:45:05,VALID,917.421,VALID,0,VALID,95.064,VALID,0.107441,VALID,20.3674,VALID,357,VALID,0,
2012-09-24, 00:46:05,VALID,917.375,VALID,0,VALID,94.9954,VALID,0.107441,VALID,20.3674,VALID,357,VALID,0,
2012-09-24, 00:47:05,VALID,917.335,VALID,0,VALID,94.9649,VALID,0,VALID,20.3284,VALID,33,VALID,0,
2012-09-24, 00:48:05,VALID,917.278,VALID,0,VALID,95.0564,VALID,0,VALID,20.3074,VALID,19,VALID,0,
2012-09-24, 00:49:05,VALID,917.234,VALID,0,VALID,95.0945,VALID,0,VALID,20.3269,VALID,29,VALID,0,
2012-09-24, 00:50:05,VALID,917.221,VALID,0,VALID,95.125,VALID,0,VALID,20.3464,VALID,2,VALID,0,
2012-09-24, 00:51:05,VALID,917.2,VALID,0,VALID,95.0106,VALID,0,VALID,20.3479,VALID,317,VALID,0,
2012-09-24, 00:52:05,VALID,917.174,VALID,0,VALID,94.9801,VALID,0.107441,VALID,20.3464,VALID,19,VALID,0,
2012-09-24, 00:53:05,VALID,917.146,VALID,0,VALID,94.9801,VALID,0,VALID,20.3674,VALID,11,VALID,0,
2012-09-24, 00:54:05,VALID,917.131,VALID,0,VALID,94.881,VALID,0,VALID,20.3464,VALID,8,VALID,0,
2012-09-24, 00:55:05,VALID,917.105,VALID,0,VALID,94.8582,VALID,0.107441,VALID,20.3674,VALID,333,VALID,0,
2012-09-24, 00:56:05,VALID,917.104,VALID,0,VALID,94.881,VALID,0,VALID,20.3464,VALID,354,VALID,0,
2012-09-24, 00:57:05,VALID,917.084,VALID,0,VALID,94.942,VALID,0,VALID,20.3674,VALID,354,VALID,0,
2012-09-24, 00:58:05,VALID,917.081,VALID,0,VALID,95.0335,VALID,0.107441,VALID,20.3479,VALID,354,VALID,0,
2012-09-24, 00:59:05,VALID,917.109,VALID,0,VALID,95.0564,VALID,0,VALID,20.3674,VALID,354,VALID,0,
2012-09-24, 01:00:05,VALID,917.083,VALID,0,VALID,95.1555,VALID,0,VALID,20.3674,VALID,354,VALID,0,
2012-09-24, 01:01:05,VALID,917.093,VALID,0,VALID,95.2317,VALID,0,VALID,20.3659,VALID,354,VALID,0,
2012-09-24, 01:02:05,VALID,917.096,VALID,0,VALID,95.2317,VALID,0,VALID,20.4244,VALID,354,VALID,0,
2012-09-24, 01:03:05,VALID,917.09,VALID,0,VALID,95.2165,VALID,0,VALID,20.447,VALID,354,VALID,0,
2012-09-24, 01:04:05,VALID,917.074,VALID,0,VALID,95.0792,VALID,0,VALID,20.447,VALID,354,VALID,0,
2012-09-24, 01:05:05,VALID,917.055,VALID,0,VALID,95.0792,VALID,0,VALID,20.4665,VALID,354,VALID,0,
2012-09-24, 01:06:05,VALID,917.035,VALID,0,VALID,94.9725,VALID,0,VALID,20.4665,VALID,354,VALID,0,
2012-09-24, 01:07:05,VALID,916.999,VALID,0,VALID,94.8963,VALID,0,VALID,20.4665,VALID,354,VALID,0,
2012-09-24, 01:08:05,VALID,916.978,VALID,0,VALID,94.8887,VALID,0,VALID,20.4454,VALID,354,VALID,0,
2012-09-24, 01:09:05,VALID,916.971,VALID,0,VALID,94.8048,VALID,0,VALID,20.447,VALID,354,VALID,0,
2012-09-24, 01:10:05,VALID,916.931,VALID,0,VALID,94.8734,VALID,0,VALID,20.4275,VALID,354,VALID,0,
2012-09-24, 01:11:05,VALID,916.915,VALID,0,VALID,94.9115,VALID,0,VALID,20.447,VALID,354,VALID,0,
2012-09-24, 01:12:05,VALID,916.914,VALID,0,VALID,94.9115,VALID,0,VALID,20.447,VALID,354,VALID,0,
2012-09-24, 01:13:05,VALID,916.917,VALID,0,VALID,94.8658,VALID,0,VALID,20.4665,VALID,354,VALID,0,
2012-09-24, 01:14:05,VALID,916.898,VALID,0,VALID,94.7591,VALID,0,VALID,20.447,VALID,354,VALID,0,
2012-09-24, 01:15:05,VALID,916.899,VALID,0,VALID,94.7743,VALID,0,VALID,20.4275,VALID,354,VALID,0,
2012-09-24, 01:16:05,VALID,916.894,VALID,0,VALID,94.7514,VALID,0,VALID,20.4259,VALID,354,VALID,0,
2012-09-24, 01:17:05,VALID,916.91,VALID,0,VALID,94.7438,VALID,0,VALID,20.4275,VALID,354,VALID,0,
2012-09-24, 01:18:05,VALID,916.912,VALID,0,VALID,94.7667,VALID,0,VALID,20.4259,VALID,354,VALID,0,
2012-09-24, 01:19:05,VALID,916.874,VALID,0,VALID,94.8124,VALID,0,VALID,20.4064,VALID,354,VALID,0,
2012-09-24, 01:20:05,VALID,916.874,VALID,0,VALID,94.8658,VALID,0,VALID,20.4064,VALID,354,VALID,0,
2012-09-24, 01:21:05,VALID,916.823,VALID,0,VALID,94.8734,VALID,0,VALID,20.3854,VALID,354,VALID,0,
2012-09-24, 01:22:05,VALID,916.848,VALID,0,VALID,94.9115,VALID,0.107441,VALID,20.4244,VALID,354,VALID,0,
2012-09-24, 01:23:05,VALID,916.828,VALID,0,VALID,94.8505,VALID,0,VALID,20.4064,VALID,354,VALID,0,
2012-09-24, 01:24:05,VALID,916.836,VALID,0,VALID,94.8505,VALID,0.107441,VALID,20.4049,VALID,354,VALID,0,
2012-09-24, 01:25:05,VALID,916.783,VALID,0,VALID,94.8124,VALID,0,VALID,20.4259,VALID,354,VALID,0,
2012-09-24, 01:26:05,VALID,916.776,VALID,0,VALID,94.8277,VALID,0,VALID,20.4454,VALID,354,VALID,0,
2012-09-24, 01:27:05,VALID,916.771,VALID,0,VALID,94.7591,VALID,0.107441,VALID,20.4259,VALID,354,VALID,0,
2012-09-24, 01:28:05,VALID,916.762,VALID,0,VALID,94.7438,VALID,0,VALID,20.4064,VALID,354,VALID,0,
2012-09-24, 01:29:05,VALID,916.715,VALID,0,VALID,94.6905,VALID,0,VALID,20.3464,VALID,354,VALID,0,
2012-09-24, 01:30:05,VALID,916.674,VALID,0,VALID,94.5913,VALID,0,VALID,20.3479,VALID,354,VALID,0,
2012-09-24, 01:31:05,VALID,916.624,VALID,0,VALID,94.5685,VALID,0,VALID,20.3284,VALID,354,VALID,0,
2012-09-24, 01:32:05,VALID,916.596,VALID,0,VALID,94.5227,VALID,0.107441,VALID,20.2879,VALID,354,VALID,0,
2012-09-24, 01:33:05,VALID,916.573,VALID,0,VALID,94.4617,VALID,0.107441,VALID,20.2684,VALID,354,VALID,0,
2012-09-24, 01:34:05,VALID,916.542,VALID,0,VALID,94.5456,VALID,0,VALID,20.2293,VALID,354,VALID,0,
2012-09-24, 01:35:05,VALID,916.537,VALID,0,VALID,94.6371,VALID,0,VALID,20.1903,VALID,354,VALID,0,
2012-09-24, 01:36:05,VALID,916.526,VALID,0,VALID,94.7209,VALID,0,VALID,20.1708,VALID,354,VALID,0,
2012-09-24, 01:37:05,VALID,916.519,VALID,0,VALID,94.7743,VALID,0,VALID,20.1513,VALID,354,VALID,0,
2012-09-24, 01:38:05,VALID,916.52,VALID,0,VALID,94.8505,VALID,0,VALID,20.1529,VALID,354,VALID,0,
2012-09-24, 01:39:05,VALID,916.491,VALID,0,VALID,94.8963,VALID,0.107441,VALID,20.1123,VALID,354,VALID,0,
2012-09-24, 01:40:05,VALID,916.515,VALID,0,VALID,94.8963,VALID,0.107441,VALID,20.1334,VALID,354,VALID,0,
2012-09-24, 01:41:05,VALID,916.524,VALID,0,VALID,94.9268,VALID,0,VALID,20.0733,VALID,354,VALID,0,
2012-09-24, 01:42:05,VALID,916.527,VALID,0,VALID,94.8658,VALID,0,VALID,20.0749,VALID,354,VALID,0,
2012-09-24, 01:43:05,VALID,916.511,VALID,0,VALID,94.9115,VALID,0,VALID,20.0553,VALID,354,VALID,0,
2012-09-24, 01:44:05,VALID,916.531,VALID,0,VALID,94.9649,VALID,0,VALID,20.0358,VALID,354,VALID,0,
2012-09-24, 01:45:05,VALID,916.498,VALID,0,VALID,95.0106,VALID,0.107441,VALID,20.0358,VALID,354,VALID,0,
2012-09-24, 01:46:05,VALID,916.471,VALID,0,VALID,94.9725,VALID,0,VALID,20.0148,VALID,354,VALID,0,
2012-09-24, 01:47:05,VALID,916.477,VALID,0,VALID,94.8124,VALID,0.107441,VALID,19.9563,VALID,354,VALID,0,
2012-09-24, 01:48:05,VALID,916.432,VALID,0,VALID,94.7362,VALID,0.107441,VALID,19.9173,VALID,354,VALID,0,
2012-09-24, 01:49:05,VALID,916.443,VALID,0,VALID,94.7057,VALID,0,VALID,19.8588,VALID,354,VALID,0,
2012-09-24, 01:50:05,VALID,916.43,VALID,0,VALID,94.6905,VALID,0.107441,VALID,19.7808,VALID,354,VALID,0,
2012-09-24, 01:51:05,VALID,916.404,VALID,0,VALID,94.7819,VALID,0.107441,VALID,19.7628,VALID,354,VALID,0,
2012-09-24, 01:52:05,VALID,916.366,VALID,0,VALID,95.1555,VALID,0.107441,VALID,19.7628,VALID,354,VALID,0,
2012-09-24, 01:53:05,VALID,916.383,VALID,0,VALID,95.3079,VALID,0,VALID,19.7238,VALID,354,VALID,0,
2012-09-24, 01:54:05,VALID,916.376,VALID,0,VALID,95.4528,VALID,0,VALID,19.7238,VALID,354,VALID,0,
2012-09-24, 01:55:05,VALID,916.388,VALID,0,VALID,95.5214,VALID,0,VALID,19.6833,VALID,354,VALID,0,
2012-09-24, 01:56:05,VALID,916.409,VALID,0,VALID,95.6357,VALID,0,VALID,19.6638,VALID,354,VALID,0,
2012-09-24, 01:57:05,VALID,916.383,VALID,0,VALID,95.8263,VALID,0,VALID,19.7043,VALID,341,VALID,0,
2012-09-24, 01:58:05,VALID,916.354,VALID,0,VALID,95.9483,VALID,0,VALID,19.7433,VALID,310,VALID,0,
2012-09-24, 01:59:05,VALID,916.355,VALID,0,VALID,96.0093,VALID,0.107441,VALID,19.7628,VALID,310,VALID,0,
2012-09-24, 02:00:05,VALID,916.356,VALID,0,VALID,96.0474,VALID,0,VALID,19.7628,VALID,310,VALID,0,
2012-09-24, 02:01:05,VALID,916.355,VALID,0,VALID,96.0932,VALID,0,VALID,19.7628,VALID,310,VALID,0,
2012-09-24, 02:02:05,VALID,916.366,VALID,0,VALID,96.1236,VALID,0,VALID,19.7628,VALID,310,VALID,0,
2012-09-24, 02:03:05,VALID,916.35,VALID,0,VALID,96.2151,VALID,0,VALID,19.7838,VALID,310,VALID,0,
2012-09-24, 02:04:05,VALID,916.378,VALID,0,VALID,96.2456,VALID,0,VALID,19.7838,VALID,310,VALID,0,
2012-09-24, 02:05:05,VALID,916.368,VALID,0,VALID,96.2685,VALID,0,VALID,19.7838,VALID,310,VALID,0,
2012-09-24, 02:06:05,VALID,916.353,VALID,0,VALID,96.3219,VALID,0,VALID,19.7628,VALID,310,VALID,0,
2012-09-24, 02:07:05,VALID,916.346,VALID,0,VALID,96.3905,VALID,0,VALID,19.8033,VALID,310,VALID,0,
2012-09-24, 02:08:05,VALID,916.348,VALID,0,VALID,96.4362,VALID,0,VALID,19.7823,VALID,310,VALID,0,
2012-09-24, 02:09:05,VALID,916.329,VALID,0,VALID,96.4667,VALID,0,VALID,19.8228,VALID,310,VALID,0,
2012-09-24, 02:10:05,VALID,916.269,VALID,0,VALID,96.3219,VALID,0,VALID,19.8033,VALID,310,VALID,0,
2012-09-24, 02:11:05,VALID,916.27,VALID,0,VALID,96.36,VALID,0,VALID,19.7838,VALID,310,VALID,0,
2012-09-24, 02:12:05,VALID,916.23,VALID,0,VALID,96.4286,VALID,0,VALID,19.7643,VALID,346,VALID,0,
2012-09-24, 02:13:05,VALID,916.233,VALID,0,VALID,96.4819,VALID,0,VALID,19.7853,VALID,348,VALID,0,
2012-09-24, 02:14:05,VALID,916.198,VALID,0,VALID,96.4819,VALID,0,VALID,19.7838,VALID,348,VALID,0,
2012-09-24, 02:15:05,VALID,916.212,VALID,0,VALID,96.5277,VALID,0,VALID,19.8033,VALID,348,VALID,0,
2012-09-24, 02:16:05,VALID,916.192,VALID,0,VALID,96.5734,VALID,0,VALID,19.8033,VALID,9,VALID,0,
2012-09-24, 02:17:05,VALID,916.153,VALID,0,VALID,96.6039,VALID,0,VALID,19.8033,VALID,4,VALID,0,
2012-09-24, 02:18:05,VALID,916.129,VALID,0,VALID,96.6039,VALID,0,VALID,19.8213,VALID,22,VALID,0,
2012-09-24, 02:19:05,VALID,916.11,VALID,0,VALID,96.4896,VALID,0,VALID,19.8018,VALID,22,VALID,0,
2012-09-24, 02:20:05,VALID,916.094,VALID,0,VALID,96.4819,VALID,0,VALID,19.7823,VALID,34,VALID,0,
2012-09-24, 02:21:05,VALID,916.023,VALID,0,VALID,96.4743,VALID,0,VALID,19.7823,VALID,34,VALID,0,
2012-09-24, 02:22:05,VALID,916.079,VALID,0,VALID,96.4667,VALID,0,VALID,19.7628,VALID,34,VALID,0,
2012-09-24, 02:23:05,VALID,916.076,VALID,0,VALID,96.4133,VALID,0.107441,VALID,19.7643,VALID,34,VALID,0,
2012-09-24, 02:24:05,VALID,916.101,VALID,0,VALID,96.4286,VALID,0,VALID,19.7628,VALID,34,VALID,0,
2012-09-24, 02:25:05,VALID,916.074,VALID,0,VALID,96.4286,VALID,0,VALID,19.7433,VALID,34,VALID,0,
2012-09-24, 02:26:05,VALID,916.075,VALID,0,VALID,96.3295,VALID,0,VALID,19.7238,VALID,34,VALID,0,
2012-09-24, 02:27:05,VALID,916.072,VALID,0,VALID,96.3752,VALID,0.107441,VALID,19.7238,VALID,34,VALID,0,
2012-09-24, 02:28:05,VALID,916.036,VALID,0,VALID,96.3524,VALID,0,VALID,19.7223,VALID,32,VALID,0,
2012-09-24, 02:29:05,VALID,916.007,VALID,0,VALID,96.1999,VALID,0,VALID,19.7433,VALID,35,VALID,0,
2012-09-24, 02:30:05,VALID,915.987,VALID,0,VALID,96.0855,VALID,0,VALID,19.7043,VALID,44,VALID,0,
2012-09-24, 02:31:05,VALID,915.964,VALID,0,VALID,96.0474,VALID,0,VALID,19.7238,VALID,38,VALID,0,
2012-09-24, 02:32:05,VALID,915.927,VALID,0,VALID,95.9407,VALID,0,VALID,19.7043,VALID,38,VALID,0,
2012-09-24, 02:33:05,VALID,915.902,VALID,0,VALID,95.9178,VALID,0,VALID,19.6848,VALID,38,VALID,0,
2012-09-24, 02:34:05,VALID,915.863,VALID,0,VALID,95.8035,VALID,0.107441,VALID,19.6653,VALID,38,VALID,0,
2012-09-24, 02:35:05,VALID,915.873,VALID,0,VALID,95.8111,VALID,0,VALID,19.6263,VALID,38,VALID,0,
2012-09-24, 02:36:05,VALID,915.883,VALID,0,VALID,95.9331,VALID,0,VALID,19.6263,VALID,38,VALID,0,
2012-09-24, 02:37:05,VALID,915.897,VALID,0,VALID,95.9026,VALID,0,VALID,19.6458,VALID,38,VALID,0,
2012-09-24, 02:38:05,VALID,915.887,VALID,0,VALID,95.8797,VALID,0,VALID,19.6458,VALID,38,VALID,0,
2012-09-24, 02:39:05,VALID,915.916,VALID,0,VALID,95.895,VALID,0,VALID,19.6263,VALID,38,VALID,0,
2012-09-24, 02:40:05,VALID,915.94,VALID,0,VALID,95.895,VALID,0,VALID,19.6263,VALID,38,VALID,0,
2012-09-24, 02:41:05,VALID,915.958,VALID,0,VALID,95.9331,VALID,0.107441,VALID,19.6458,VALID,38,VALID,0,
2012-09-24, 02:42:05,VALID,915.954,VALID,0,VALID,95.895,VALID,0,VALID,19.6068,VALID,38,VALID,0,
2012-09-24, 02:43:05,VALID,915.968,VALID,0,VALID,95.9178,VALID,0,VALID,19.5873,VALID,38,VALID,0,
2012-09-24, 02:44:05,VALID,915.984,VALID,0,VALID,95.9407,VALID,0,VALID,19.6068,VALID,38,VALID,0,
2012-09-24, 02:45:05,VALID,915.996,VALID,0,VALID,95.8568,VALID,0,VALID,19.5678,VALID,38,VALID,0,
2012-09-24, 02:46:05,VALID,916.055,VALID,0,VALID,95.8187,VALID,0,VALID,19.5288,VALID,165,VALID,0,
2012-09-24, 02:47:05,VALID,916.097,VALID,0,VALID,95.8187,VALID,0,VALID,19.4898,VALID,165,VALID,0,
2012-09-24, 02:48:05,VALID,916.09,VALID,0,VALID,95.895,VALID,0,VALID,19.4313,VALID,165,VALID,0,
2012-09-24, 02:49:05,VALID,916.101,VALID,0,VALID,95.9712,VALID,0,VALID,19.4313,VALID,165,VALID,0,
2012-09-24, 02:50:05,VALID,916.094,VALID,0,VALID,95.9864,VALID,0,VALID,19.3923,VALID,165,VALID,0,
2012-09-24, 02:51:05,VALID,916.061,VALID,0,VALID,96.0093,VALID,0,VALID,19.3547,VALID,165,VALID,0,
2012-09-24, 02:52:05,VALID,916.044,VALID,0,VALID,96.0627,VALID,0,VALID,19.3143,VALID,165,VALID,0,
2012-09-24, 02:53:05,VALID,916.014,VALID,0,VALID,96.116,VALID,0,VALID,19.2753,VALID,165,VALID,0,
2012-09-24, 02:54:05,VALID,915.997,VALID,0,VALID,96.177,VALID,0,VALID,19.2558,VALID,165,VALID,0,
2012-09-24, 02:55:05,VALID,916.019,VALID,0,VALID,96.2456,VALID,0,VALID,19.2558,VALID,165,VALID,0,
2012-09-24, 02:56:05,VALID,915.983,VALID,0,VALID,96.3905,VALID,0,VALID,19.2753,VALID,165,VALID,0,
2012-09-24, 02:57:05,VALID,915.946,VALID,0,VALID,96.5429,VALID,0,VALID,19.3157,VALID,165,VALID,0,
2012-09-24, 02:58:05,VALID,916,VALID,0,VALID,96.5048,VALID,0,VALID,19.2948,VALID,165,VALID,0,
2012-09-24, 02:59:05,VALID,915.984,VALID,0,VALID,96.5124,VALID,0,VALID,19.2753,VALID,165,VALID,0,
2012-09-24, 03:00:05,VALID,916.003,VALID,0,VALID,96.5658,VALID,0,VALID,19.2948,VALID,165,VALID,0,
2012-09-24, 03:01:05,VALID,915.982,VALID,0,VALID,96.5734,VALID,0,VALID,19.2753,VALID,165,VALID,0,
2012-09-24, 03:02:04,VALID,916.014,VALID,0,VALID,96.5582,VALID,0,VALID,19.2753,VALID,165,VALID,0,
2012-09-24, 03:03:04,VALID,916.012,VALID,0,VALID,96.5429,VALID,0,VALID,19.2363,VALID,165,VALID,0,
2012-09-24, 03:04:04,VALID,915.98,VALID,0,VALID,96.5658,VALID,0,VALID,19.2168,VALID,165,VALID,0,
2012-09-24, 03:05:04,VALID,916.002,VALID,0,VALID,96.5734,VALID,0,VALID,19.1973,VALID,165,VALID,0,
2012-09-24, 03:06:04,VALID,916.025,VALID,0,VALID,96.6115,VALID,0,VALID,19.1987,VALID,165,VALID,0,
2012-09-24, 03:07:04,VALID,916.062,VALID,0,VALID,96.6649,VALID,0,VALID,19.2377,VALID,163,VALID,0,
2012-09-24, 03:08:04,VALID,916.072,VALID,0,VALID,96.6039,VALID,0,VALID,19.1973,VALID,162,VALID,0,
2012-09-24, 03:09:04,VALID,916.132,VALID,0,VALID,96.6649,VALID,0,VALID,19.2377,VALID,145,VALID,0,
2012-09-24, 03:10:04,VALID,916.185,VALID,0,VALID,96.6878,VALID,0,VALID,19.2363,VALID,145,VALID,0,
2012-09-24, 03:11:04,VALID,916.196,VALID,0,VALID,96.6878,VALID,0,VALID,19.2363,VALID,145,VALID,0,
2012-09-24, 03:12:04,VALID,916.231,VALID,0,VALID,96.7107,VALID,0,VALID,19.2558,VALID,145,VALID,0,
2012-09-24, 03:13:04,VALID,916.238,VALID,0,VALID,96.7183,VALID,0,VALID,19.2558,VALID,145,VALID,0,
2012-09-24, 03:14:04,VALID,916.281,VALID,0,VALID,96.6573,VALID,0,VALID,19.2572,VALID,145,VALID,0,
2012-09-24, 03:15:04,VALID,916.295,VALID,0,VALID,96.3905,VALID,0,VALID,19.1597,VALID,145,VALID,0,
2012-09-24, 03:16:04,VALID,916.336,VALID,0,VALID,96.4743,VALID,0.107441,VALID,19.1193,VALID,145,VALID,0,
2012-09-24, 03:17:04,VALID,916.374,VALID,0,VALID,96.6115,VALID,0.107441,VALID,19.1388,VALID,145,VALID,0,
2012-09-24, 03:18:04,VALID,916.416,VALID,0,VALID,96.703,VALID,0,VALID,19.1778,VALID,145,VALID,0,
2012-09-24, 03:19:04,VALID,916.431,VALID,0,VALID,96.7564,VALID,0,VALID,19.2363,VALID,145,VALID,0,
2012-09-24, 03:20:04,VALID,916.445,VALID,0,VALID,96.7869,VALID,0,VALID,19.2753,VALID,145,VALID,0,
2012-09-24, 03:21:04,VALID,916.453,VALID,0,VALID,96.7564,VALID,0,VALID,19.3352,VALID,145,VALID,0,
2012-09-24, 03:22:04,VALID,916.432,VALID,0,VALID,96.7564,VALID,0,VALID,19.3533,VALID,145,VALID,0,
2012-09-24, 03:23:04,VALID,916.445,VALID,0,VALID,96.7564,VALID,0,VALID,19.3742,VALID,145,VALID,0,
2012-09-24, 03:24:04,VALID,916.388,VALID,0,VALID,96.7259,VALID,0,VALID,19.3728,VALID,145,VALID,0,
2012-09-24, 03:25:04,VALID,916.417,VALID,0,VALID,96.6954,VALID,0,VALID,19.3338,VALID,145,VALID,0,
2012-09-24, 03:26:04,VALID,916.42,VALID,0,VALID,96.5277,VALID,0,VALID,19.3352,VALID,145,VALID,0,
2012-09-24, 03:27:04,VALID,916.412,VALID,0,VALID,96.3219,VALID,0,VALID,19.2363,VALID,145,VALID,0,
2012-09-24, 03:28:04,VALID,916.401,VALID,0,VALID,96.2914,VALID,0,VALID,19.2182,VALID,145,VALID,0,
2012-09-24, 03:29:04,VALID,916.432,VALID,0,VALID,96.3981,VALID,0,VALID,19.1792,VALID,145,VALID,0,
2012-09-24, 03:30:04,VALID,916.447,VALID,0,VALID,96.4972,VALID,0,VALID,19.1987,VALID,145,VALID,0,
2012-09-24, 03:31:04,VALID,916.431,VALID,0,VALID,96.642,VALID,0,VALID,19.2572,VALID,145,VALID,0,
2012-09-24, 03:32:04,VALID,916.423,VALID,0,VALID,96.7107,VALID,0,VALID,19.3352,VALID,145,VALID,0,
2012-09-24, 03:33:04,VALID,916.403,VALID,0,VALID,96.7335,VALID,0,VALID,19.3937,VALID,145,VALID,0,
2012-09-24, 03:34:04,VALID,916.393,VALID,0,VALID,96.7183,VALID,0,VALID,19.4118,VALID,145,VALID,0,
2012-09-24, 03:35:04,VALID,916.348,VALID,0,VALID,96.7107,VALID,0,VALID,19.4313,VALID,145,VALID,0,
2012-09-24, 03:36:04,VALID,916.325,VALID,0,VALID,96.7107,VALID,0,VALID,19.4313,VALID,145,VALID,0,
2012-09-24, 03:37:04,VALID,916.291,VALID,0,VALID,96.6039,VALID,0,VALID,19.4118,VALID,145,VALID,0,
2012-09-24, 03:38:04,VALID,916.301,VALID,0,VALID,96.5582,VALID,0,VALID,19.3937,VALID,145,VALID,0,
2012-09-24, 03:39:04,VALID,916.262,VALID,0,VALID,96.6039,VALID,0,VALID,19.3937,VALID,145,VALID,0,
2012-09-24, 03:40:04,VALID,916.252,VALID,0,VALID,96.6115,VALID,0,VALID,19.3937,VALID,145,VALID,0,
2012-09-24, 03:41:04,VALID,916.26,VALID,0,VALID,96.5658,VALID,0,VALID,19.3547,VALID,145,VALID,0,
2012-09-24, 03:42:04,VALID,916.268,VALID,0,VALID,96.5124,VALID,0,VALID,19.2767,VALID,145,VALID,0,
2012-09-24, 03:43:04,VALID,916.26,VALID,0,VALID,96.3295,VALID,0,VALID,19.2182,VALID,145,VALID,0,
2012-09-24, 03:44:04,VALID,916.27,VALID,0,VALID,96.6268,VALID,0,VALID,19.1987,VALID,43,VALID,0,
2012-09-24, 03:45:04,VALID,916.281,VALID,0,VALID,96.703,VALID,0,VALID,19.1987,VALID,43,VALID,0,
2012-09-24, 03:46:04,VALID,916.269,VALID,0,VALID,96.7107,VALID,0,VALID,19.2168,VALID,43,VALID,0,
2012-09-24, 03:47:04,VALID,916.289,VALID,0,VALID,96.7335,VALID,0,VALID,19.2168,VALID,43,VALID,0,
2012-09-24, 03:48:04,VALID,916.255,VALID,0,VALID,96.7564,VALID,0,VALID,19.2767,VALID,43,VALID,0,
2012-09-24, 03:49:04,VALID,916.251,VALID,0,VALID,96.7869,VALID,0,VALID,19.2753,VALID,43,VALID,0,
2012-09-24, 03:50:04,VALID,916.233,VALID,0,VALID,96.8098,VALID,0,VALID,19.2767,VALID,43,VALID,0,
2012-09-24, 03:51:04,VALID,916.217,VALID,0,VALID,96.8326,VALID,0,VALID,19.3143,VALID,43,VALID,0,
2012-09-24, 03:52:04,VALID,916.217,VALID,0,VALID,96.8326,VALID,0,VALID,19.3143,VALID,43,VALID,0,
2012-09-24, 03:53:04,VALID,916.248,VALID,0,VALID,96.8098,VALID,0,VALID,19.3143,VALID,43,VALID,0,
2012-09-24, 03:54:04,VALID,916.253,VALID,0,VALID,96.7793,VALID,0,VALID,19.2767,VALID,43,VALID,0,
2012-09-24, 03:55:04,VALID,916.235,VALID,0,VALID,96.764,VALID,0,VALID,19.2558,VALID,43,VALID,0,
2012-09-24, 03:56:04,VALID,916.271,VALID,0,VALID,96.7869,VALID,0,VALID,19.2363,VALID,43,VALID,0,
2012-09-24, 03:57:04,VALID,916.285,VALID,0,VALID,96.7564,VALID,0,VALID,19.2572,VALID,43,VALID,0,
2012-09-24, 03:58:04,VALID,916.284,VALID,0,VALID,96.7564,VALID,0,VALID,19.2168,VALID,43,VALID,0,